[[{"header":{"parameterUnit":"m.s-1","parameterCategory":1,"la1":30.2991,"la2":30.254,"lo1":-89.0895,"lo2":-89.0444,"dy":0.0017,"dx":0.0017,"nx":28,"ny":28,"refTime":"2024-12-25T03:00:00:Z","depth":0,"parameterNumber":2,"parameterNumberName":"U-component_of_WINDS"},"data":[0,0,0,0,0,0,0,0,0,0,0,0,0,0,0,0,0,0,0,0,0,0,0,0,0,0,0,0,0,0,0,0,0,0,0,0,0,0,0,0,0,0,0,0,0,0,0,0,0,0,0,0,0,0,0,0,0,0,-7.4044,-7.4044,0,-7.4066,-7.4067,-7.4067,-7.3911,-7.3907,-7.3902,-7.3898,-7.3922,-7.3926,-7.3931,0,0,0,0,0,0,0,0,0,0,0,0,0,-7.3869,-7.3873,-7.4044,-7.4044,-7.4044,-7.4066,-7.4067,-7.4067,-7.3912,-7.3907,-7.3901,-7.3896,-7.392,-7.3926,-7.3931,0,0,0,0,0,0,0,0,0,0,0,0,0,-7.3924,-7.3874,-7.4044,-7.397,-7.3963,-7.4066,-7.4067,-7.4067,-7.3913,-7.3906,-7.39,-7.3894,-7.3918,-7.3925,-7.3932,-7.4107,0,0,-7.3954,-7.3957,0,0,0,0,0,0,0,0,-7.3921,-7.393,-7.398,-7.3975,-7.3968,-7.3979,-7.4013,-7.4081,-7.3915,-7.3932,-7.3898,-7.3891,-7.3946,-7.3951,-7.3969,-7.4108,-7.4109,-7.3954,-7.3959,-7.3962,-7.3964,0,0,0,0,0,0,0,-7.3917,-7.3928,-7.4053,-7.3981,-7.3974,-7.3936,-7.3937,-7.4025,-7.3976,-7.393,-7.3919,-7.3924,-7.3942,-7.3963,-7.3969,-7.411,-7.3954,-7.396,-7.3965,-7.3968,-7.4395,-7.4402,0,0,0,0,0,0,-7.3923,-7.3926,-7.4052,-7.4053,-7.3928,-7.3945,-7.3945,-7.3982,-7.3974,-7.3967,-7.3929,-7.3916,-7.3954,-7.3961,-7.3969,-7.4172,-7.3962,-7.3968,-7.3972,-7.4388,-7.4397,-7.4404,0,0,0,0,0,0,-7.392,-7.3936,-7.4051,-7.3987,-7.3999,-7.3955,-7.3998,-7.3986,-7.4007,-7.3974,-7.3964,-7.396,-7.3949,-7.3959,-7.4074,-7.4171,-7.3971,-7.3978,-7.438,-7.4391,-7.44,-7.4582,0,0,0,0,0,0,-7.3916,-7.3936,-7.4001,-7.3989,-7.4003,-7.4156,-7.4004,-7.3991,-7.402,-7.4003,-7.4,-7.3993,-7.3945,-7.4065,-7.4081,-7.4177,-7.3983,-7.4371,-7.4384,-7.4397,-7.4567,-7.4598,-7.4624,0,0,0,0,0,-7.391,-7.4051,-7.4005,-7.4021,-7.4083,-7.4161,-7.4169,-7.411,-7.4028,-7.4093,-7.4073,-7.3993,-7.4159,-7.4078,-7.4095,-7.4195,-7.4364,-7.4381,-7.4396,-7.4554,-7.4592,-7.4623,0,0,0,0,0,0,-7.4073,-7.4048,-7.3996,-7.4138,-7.4153,-7.4135,-7.4215,-7.4151,-7.419,-7.4173,-7.4099,-7.41,-7.4227,-7.4223,-7.4133,-7.4365,-7.4247,-7.4268,-7.4362,-7.4397,-7.4425,-7.4421,-7.3989,0,0,0,0,0,-7.4126,-7.4192,-7.4166,-7.4293,-7.4304,-7.4259,-7.4291,-7.4245,-7.4258,-7.4263,-7.425,-7.4267,-7.4322,-7.436,-7.4409,-7.4568,-7.4564,-7.4645,-7.4674,-7.4697,-7.4714,-7.4798,-7.4833,-7.4457,-7.4457,-7.4456,0,0,-7.4235,-7.4229,-7.4274,-7.4326,-7.4332,-7.4402,-7.4265,-7.4344,-7.4395,-7.4275,-7.4382,-7.4375,-7.4388,-7.4526,-7.4586,-7.4526,-7.4818,-7.4718,-7.4736,-7.474,-7.4818,-7.4853,-7.4885,-7.4468,-7.4466,-7.4464,0,0,-7.4467,-7.4471,-7.4577,-7.4587,-7.4599,-7.4569,-7.4596,-7.4589,-7.4579,-7.4686,-7.4598,-7.4659,-7.4756,-7.4769,-7.4788,-7.5032,-7.496,-7.5051,-7.5197,-7.5279,-7.5309,-7.5335,-7.542,-7.5452,-7.5069,-7.507,-7.507,0,-7.46,-7.4701,-7.4639,-7.4725,-7.475,-7.4648,-7.4755,-7.4768,-7.4796,-7.4816,-7.475,-7.4871,-7.4873,-7.5012,-7.5072,-7.5092,-7.5119,-7.5048,-7.531,-7.5335,-7.5358,-7.5439,-7.5471,-7.508,-7.5079,-7.5078,-7.5077,0,-7.4864,-7.4936,-7.5021,-7.5051,-7.5087,-7.5183,-7.5136,-7.518,-7.5134,-7.5112,-7.5223,-7.5223,-7.527,-7.5301,-7.5255,-7.5435,-7.5397,-7.5323,-7.5202,-7.5406,-7.548,-7.551,-7.5096,-7.5092,-7.5089,-7.5086,0,0,-7.5193,-7.5192,-7.5224,-7.5237,-7.5245,-7.53,-7.5394,-7.5441,-7.5479,-7.5505,-7.558,-7.5668,-7.5599,-7.5621,-7.5577,-7.565,-7.5842,-7.5566,-7.5565,-7.5615,-7.6039,-7.6092,-7.6129,-7.5797,-7.5803,-7.5807,-7.6037,0,-7.5419,-7.5576,-7.5525,-7.5685,-7.575,-7.5657,-7.5738,-7.5753,-7.5737,-7.5791,-7.5773,-7.5835,-7.574,-7.5753,-7.5822,-7.5804,-7.5926,-7.5788,-7.5865,-7.5869,-7.586,-7.6168,-7.6224,-7.644,-7.6066,-7.6071,-7.6074,0,-7.57,-7.5737,-7.5903,-7.5903,-7.5929,-7.6002,-7.6043,-7.6096,-7.6113,-7.6096,-7.6124,-7.6065,-7.6158,-7.6042,-7.6168,-7.6076,-7.6106,-7.6103,-7.611,-7.611,-7.598,-7.6174,-7.6508,-7.6539,-7.612,-7.6116,-7.6113,0,-7.592,-7.6013,-7.6124,-7.6139,-7.6141,-7.6196,-7.62,-7.6209,-7.6242,-7.6279,-7.6299,-7.6347,-7.6372,-7.641,-7.6367,-7.6287,-7.65,-7.638,-7.6487,-7.6488,-7.6531,-7.6528,-7.6871,-7.6559,-7.6558,-7.6557,-7.6557,0,-7.6174,-7.6279,-7.6223,-7.6291,-7.6406,-7.635,-7.6466,-7.6459,-7.647,-7.6535,-7.646,-7.6523,-7.6464,-7.6523,-7.649,-7.6599,-7.6612,-7.6601,-7.659,-7.6605,-7.6606,-7.6619,-7.6601,-7.6566,-7.6564,-7.6562,-7.6561,0,-7.6436,-7.6404,-7.6518,-7.6514,-7.6515,-7.66,-7.6596,-7.6659,-7.664,-7.6725,-7.6741,-7.6711,-7.6776,-7.6739,-7.6806,-7.6784,-7.6925,-7.6896,-7.6919,-7.6909,-7.7017,-7.7006,-7.7376,-7.7421,-7.7085,-7.7088,-7.7091,0,-7.6598,-7.6676,-7.6681,-7.672,-7.6729,-7.6793,-7.6827,-7.6776,-7.6814,-7.6841,-7.6901,-7.6961,-7.7005,-7.7115,-7.7098,-7.715,-7.7119,-7.7246,-7.7126,-7.7139,-7.7117,-7.7111,-7.7118,-7.7268,-7.7272,-7.7275,-7.7278,0,-7.6887,-7.6868,-7.6919,-7.6966,-7.7009,-7.7044,-7.7072,-7.7108,-7.7058,-7.7106,-7.7172,-7.7207,-7.7277,-7.7336,-7.7382,-7.7386,-7.7324,-7.7317,-7.7343,-7.7357,-7.7365,-7.7359,-7.698,-7.7307,-7.7304,-7.7302,-7.73,-7.7299,-7.71,-7.7166,-7.7181,-7.7241,-7.7258,-7.7287,-7.7346,-7.7336,-7.7391,-7.7443,-7.7412,-7.749,-7.7507,-7.7561,-7.7575,-7.7636,-7.7585,-7.7624,-7.7633,-7.7643,-7.7656,-7.7361,-7.7645,-7.7644,-7.7643,-7.7642,-7.7641,0,-7.7382,-7.7388,-7.7445,-7.7488,-7.7536,-7.7477,-7.7507,-7.7551,-7.762,-7.7643,-7.7689,-7.7766,-7.7825,-7.7816,-7.787,-7.7921,-7.7894,-7.7936,-7.7929,-7.7931,-7.77,-7.767,-7.7957,-7.7957,-7.7957,-7.7957,-7.7957,-7.7957,-7.7534,-7.7642,-7.7626,-7.7743,-7.7748,-7.7824,-7.7846,-7.7873,-7.789,-7.798,-7.8029,-7.8024,-7.8034,-7.8089,-7.8141,-7.8136,-7.8158,-7.8211,-7.8196,-7.7979,-7.7947,-7.7917,-7.7888,-7.8217,-7.8217,-7.8421,-7.8423,-7.8425]},{"header":{"parameterUnit":"m.s-1","parameterCategory":1,"la1":30.2991,"la2":30.254,"lo1":-89.0895,"lo2":-89.0444,"dy":0.0017,"dx":0.0017,"nx":28,"ny":28,"refTime":"2024-12-25T03:00:00:Z","depth":0,"parameterNumber":3,"parameterNumberName":"V-component_of_WINDS"},"data":[0,0,0,0,0,0,0,0,0,0,0,0,0,0,0,0,0,0,0,0,0,0,0,0,0,0,0,0,0,0,0,0,0,0,0,0,0,0,0,0,0,0,0,0,0,0,0,0,0,0,0,0,0,0,0,0,0,0,0.302,0.302,0,0.3012,0.3012,0.3012,0.3008,0.3008,0.3008,0.3008,0.2999,0.2999,0.2999,0,0,0,0,0,0,0,0,0,0,0,0,0,0.3032,0.3032,0.302,0.302,0.3019,0.3012,0.3012,0.3012,0.3008,0.3008,0.3008,0.3008,0.2999,0.2999,0.2999,0,0,0,0,0,0,0,0,0,0,0,0,0,0.3026,0.3032,0.302,0.3016,0.3016,0.3012,0.3012,0.3012,0.3008,0.3008,0.3008,0.3008,0.2999,0.2999,0.2999,0.2997,0,0,0.2998,0.2998,0,0,0,0,0,0,0,0,0.3026,0.3025,0.3017,0.3017,0.3016,0.3011,0.3013,0.3007,0.3008,0.3011,0.3008,0.3008,0.3003,0.3003,0.3001,0.2997,0.2997,0.2998,0.2998,0.2998,0.2997,0,0,0,0,0,0,0,0.3026,0.3025,0.3017,0.3017,0.3016,0.3016,0.3015,0.3012,0.3007,0.3011,0.301,0.3009,0.3003,0.3001,0.3001,0.2996,0.2998,0.2998,0.2997,0.2997,0.2993,0.2993,0,0,0,0,0,0,0.3027,0.3026,0.3017,0.3016,0.3021,0.3016,0.3015,0.3013,0.3007,0.3006,0.3009,0.3009,0.3002,0.3001,0.3001,0.3,0.2998,0.2997,0.2997,0.2993,0.2993,0.2993,0,0,0,0,0,0,0.3028,0.3026,0.3017,0.3021,0.302,0.3015,0.3013,0.3012,0.3011,0.3006,0.3005,0.3009,0.3002,0.3001,0.2999,0.2999,0.2997,0.2997,0.2993,0.2993,0.2993,0.2997,0,0,0,0,0,0,0.3028,0.3027,0.3025,0.3021,0.302,0.3015,0.3013,0.3012,0.301,0.301,0.3005,0.3005,0.3002,0.2999,0.2998,0.2999,0.2997,0.2992,0.2993,0.2993,0.2997,0.2997,0.2997,0,0,0,0,0,0.3028,0.3026,0.3025,0.3024,0.3018,0.3015,0.3014,0.3011,0.301,0.301,0.3007,0.3005,0.2999,0.2999,0.2998,0.2998,0.2992,0.2993,0.2993,0.2996,0.2997,0.2997,0,0,0,0,0,0,0.303,0.3026,0.3024,0.3021,0.3019,0.3014,0.3013,0.3011,0.3009,0.3009,0.3005,0.3004,0.3002,0.3,0.3,0.2998,0.2996,0.2996,0.2999,0.2999,0.3,0.3,0.2996,0,0,0,0,0,0.303,0.3028,0.3024,0.3021,0.302,0.3017,0.3015,0.3014,0.3011,0.301,0.3007,0.3004,0.3002,0.3001,0.2998,0.2997,0.2996,0.2996,0.2997,0.2997,0.2997,0.2998,0.2998,0.2993,0.2993,0.2993,0,0,0.303,0.3027,0.3026,0.3022,0.302,0.3018,0.3016,0.3014,0.3013,0.3009,0.3007,0.3005,0.3002,0.3001,0.3,0.2999,0.2999,0.2997,0.2998,0.2997,0.2998,0.2998,0.2999,0.2993,0.2993,0.2993,0,0,0.3029,0.3026,0.3025,0.3023,0.302,0.3018,0.3018,0.3015,0.3014,0.3012,0.3009,0.3008,0.3004,0.3003,0.3001,0.3003,0.3001,0.3002,0.3004,0.3005,0.3005,0.3005,0.3007,0.3007,0.3002,0.3002,0.3002,0,0.3029,0.3026,0.3024,0.3022,0.3021,0.3019,0.3018,0.3016,0.3013,0.3012,0.3011,0.3008,0.3006,0.3004,0.3005,0.3004,0.3004,0.3002,0.3005,0.3006,0.3006,0.3007,0.3007,0.3002,0.3002,0.3002,0.3002,0,0.3027,0.3025,0.3024,0.3022,0.3021,0.3019,0.3018,0.3017,0.3016,0.3014,0.3013,0.3011,0.3009,0.3008,0.3007,0.3008,0.3007,0.3006,0.3004,0.3007,0.3008,0.3008,0.3003,0.3003,0.3003,0.3003,0,0,0.3025,0.3023,0.3023,0.3023,0.3021,0.3019,0.3019,0.3017,0.3017,0.3016,0.3015,0.3013,0.3013,0.3011,0.301,0.301,0.3013,0.3009,0.3009,0.3011,0.3015,0.3017,0.3017,0.3012,0.3012,0.3012,0.3016,0,0.3024,0.3023,0.3022,0.3021,0.302,0.3019,0.3019,0.3018,0.3017,0.3017,0.3016,0.3015,0.3014,0.3013,0.3014,0.3013,0.3014,0.3012,0.3013,0.3013,0.3013,0.3017,0.3018,0.3022,0.3016,0.3016,0.3016,0,0.3022,0.3022,0.3021,0.3021,0.3021,0.302,0.302,0.3019,0.3019,0.3019,0.3018,0.3017,0.3018,0.3016,0.3017,0.3016,0.3016,0.3016,0.3016,0.3016,0.3014,0.3018,0.3022,0.3023,0.3017,0.3017,0.3017,0,0.3022,0.3021,0.3021,0.3021,0.302,0.302,0.302,0.302,0.302,0.302,0.302,0.302,0.302,0.302,0.302,0.3019,0.3021,0.3019,0.3021,0.3021,0.3021,0.3021,0.3026,0.3021,0.3021,0.3021,0.3021,0,0.3021,0.3021,0.3021,0.3021,0.3021,0.3021,0.3021,0.3021,0.3022,0.3022,0.3021,0.3022,0.3021,0.3022,0.3021,0.3023,0.3022,0.3023,0.3023,0.3023,0.3023,0.3023,0.3023,0.3021,0.3021,0.3021,0.3021,0,0.302,0.302,0.302,0.3021,0.3021,0.3021,0.3022,0.3023,0.3023,0.3023,0.3024,0.3024,0.3025,0.3025,0.3025,0.3025,0.3027,0.3027,0.3028,0.3027,0.303,0.303,0.3035,0.3036,0.303,0.303,0.303,0,0.3019,0.3019,0.302,0.3021,0.3021,0.3022,0.3023,0.3023,0.3024,0.3025,0.3025,0.3026,0.3027,0.3029,0.303,0.3031,0.303,0.3032,0.303,0.3031,0.3031,0.3031,0.3032,0.3032,0.3033,0.3033,0.3033,0,0.3018,0.3019,0.302,0.3021,0.3022,0.3023,0.3024,0.3025,0.3025,0.3026,0.3028,0.3029,0.3031,0.3032,0.3034,0.3034,0.3034,0.3033,0.3034,0.3034,0.3035,0.3036,0.3029,0.3033,0.3033,0.3033,0.3033,0.3033,0.3017,0.3018,0.302,0.3021,0.3023,0.3024,0.3025,0.3026,0.3028,0.303,0.303,0.3032,0.3034,0.3036,0.3037,0.3039,0.3038,0.3039,0.3039,0.3039,0.304,0.3035,0.3039,0.3039,0.3039,0.3039,0.3039,0,0.3017,0.3019,0.302,0.3022,0.3024,0.3025,0.3026,0.3028,0.303,0.3032,0.3033,0.3036,0.3038,0.304,0.3042,0.3043,0.3043,0.3044,0.3044,0.3044,0.304,0.3039,0.3044,0.3044,0.3044,0.3044,0.3044,0.3044,0.3017,0.3019,0.302,0.3023,0.3025,0.3027,0.3029,0.3031,0.3032,0.3036,0.3038,0.3039,0.3041,0.3044,0.3046,0.3047,0.3048,0.3049,0.3049,0.3045,0.3044,0.3044,0.3043,0.3049,0.3049,0.3054,0.3054,0.3054]}]]